Location: El Águila
(10.4167°N, 66.7167°W)
Time: 06:14:07
(UTC+00:00)

Cosmos 1627 Rocket - Pass Details

Date: 02 October 2022
Orbit: 951 x 1003 km, 82.9° (Epoch: 26 November)

Event Time Altitude Azimuth Distance (km) Brightness Sun altitude
Rises 23:39:04 0° 181° (S) 3,642 7.5 -21.1°
Reaches altitude 10° 23:41:35 10° 180° (S) 2,689 6.8 -21.7°
Maximum altitude 23:47:44 83° 93° (E) 964 4.3 -23.2°
Drops below altitude 10° 23:53:50 10° 6° (N) 2,670 6.7 -24.7°
Sets 23:56:18 0° 5° (N) 3,614 7.4 -25.3°
